Regional Weather Roundup
Issued by NWS Charleston, SC

Current Version | Previous Version | Text Only | Print | Product List | Glossary Off
Versions: 1 2 3 4 5 6 7 8 9 10 11 12 13 14 15 16 17 18 19 20 21 22 23 24 25 26 27 28 29 30 31 32 33 34 35 36 37 38 39 40 41 42 43 44 45 46 47 48 49 50

000
ASUS42 KCHS 241112
RWRCHS

REGIONAL WEATHER ROUNDUP
NATIONAL WEATHER SERVICE CHARLESTON SC
700 AM EDT FRI MAR 24 2017

NOTE: "FAIR" INDICATES FEW OR NO CLOUDS BELOW 12,000 FEET WITH NO
SIGNIFICANT WEATHER AND/OR OBSTRUCTIONS TO VISIBILITY.

NOT ALL STATIONS ARE QUALITY CONTROLLED. USE DATA WITH CAUTION...
ESPECIALLY DEWPOINT OBSERVATIONS.

SCZ027-030-031-034>040-042>050-241200-
...SOUTHEAST SOUTH CAROLINA...

CITY           SKY/WX    TMP DP  RH WIND       PRES   REMARKS
N CHARLESTON   PTCLDY    49  46  90 NE5       30.47R
WATERFRONT PRK   N/A     52  51  97 N5        30.44S
JOHNS ISLAND   FAIR      52  50  93 CALM      30.46R
PINOPOLIS        N/A     46  45  93 E7        30.39R
MONCKS CORNER  FAIR      43  39  87 CALM      30.49R
SUMMERVILLE    FAIR      43  41  93 CALM      30.49R
BEAUFORT MCAS  PTCLDY    48  47  96 N7        30.46R
BEAUFORT ARPT  FAIR      50  48  93 N6        30.45R
HILTON HEAD IS CLEAR     55  55 100 N7        30.46R
WALTERBORO     SUNNY     46  43  87 NE6       30.49R
ALLENDALE      PTSUNNY   46  41  81 CALM      30.46R

...SOUTHERN MIDLANDS AND PEE DEE...

CITY           SKY/WX    TMP DP  RH WIND       PRES   REMARKS
GEORGETOWN     FAIR      50  50 100 E5        30.50R
KINGSTREE      PTSUNNY   41  36  81 CALM      30.50S
ORANGEBURG     CLEAR     45  39  79 NE3       30.49R
BARNWELL       FAIR      48  41  76 CALM      30.48R
AIKEN          CLOUDY    45  37  76 NE3       30.50R
MANNING        CLOUDY    43  37  81 NE3       30.49S
COLUMBIA       CLOUDY    50  37  61 E3        30.49R
SUMTER         CLOUDY    43  37  78 NE5       30.48R
FLORENCE       MOCLDY    39  36  89 NE5       30.52R WCI  36
MYRTLE BEACH   CLEAR     43  39  87 NE7       30.51R
N MYRTLE BEACH PTCLDY    41  39  93 NE7       30.50R

$$

GAZ063-065-086>088-099>101-113>116-118-119-134>141-150-241200-
...SOUTHEAST GEORGIA...

CITY           SKY/WX    TMP DP  RH WIND       PRES   REMARKS
SAVANNAH ARPT  PTCLDY    48  44  86 NE5       30.45R
HUNTER AAF     CLEAR     50  50  99 CALM      30.42R
FORT STEWART   CLEAR     47  44  90 CALM      30.42R
STATESBORO     CLEAR     47  45  95 CALM      30.46R
SYLVANIA       SUNNY    N/A N/A N/A E3        30.47R
CLAXTON        FAIR     N/A N/A N/A CALM      30.45R

...CSRA...CENTRAL AND FAR SOUTHEAST GEORGIA...

CITY           SKY/WX    TMP DP  RH WIND       PRES   REMARKS
THOMSON        CLEAR     47  37  68 CALM      30.51S
AUGUSTA-BUSH   PTCLDY    47  40  76 CALM      30.47R
AUGUSTA-DANIEL CLEAR     51  36  56 E6        30.47R
SWAINSBORO     FAIR      50  45  81 E5        30.46R
VIDALIA        CLEAR     50  46  87 E5        30.43S
EASTMAN        CLOUDY    53  42  66 E7        30.45S
HAZLEHURST     FAIR      50  50 100 E5        30.41S
ALMA           CLEAR     50  49  96 NE3       30.41R
WAYCROSS       MOCLDY    54  54 100 CALM      30.41R FOG
JESUP          FAIR      50  46  87 NE3       30.43R
BAXLEY         FAIR      50  50 100 E6        30.42R
BRUNSWICK        N/A     54  54 100 CALM      30.42S FOG
SAINT SIMONS   CLEAR     55  53  93 N5        30.41R

$$

SCZ027-028-034-036>038-045-046-048>050-GAZ119-141-241200-
...LAKE AND SUPPLEMENTAL COASTAL OBSERVATIONS...

STATION/POSITION TIME  TEMP    WIND        PRES    WAVE   SWELL
                       AIR SEA DIR/SP/G            HT/PER HT/PER/DIR
                 (UTC) (F)     (DEG/KT/KT) (MB)    (FT/S) (FT/S/D)
WINYAH BAY       NOT AVBL
LAKE MURRAY      1020   47      40/  2/  4 1031.8
ACE BASIN NERRS  0945   48      10/  1     1031.0
FORT PULASKI     1048   55 60   20/  5/  5 1030.9R
SAPELO ISLAND    1000   56      20/  4     1029.0

$$

ANZ835-935-AMZ111-154-330-350-352-354-370-450-454-472-241200-
...C-MAN AND BUOY OBSERVATIONS...

STATION/POSITION TIME  TEMP    WIND        PRES    WAVE   SWELL
                       AIR SEA DIR/SP/G            HT/PER HT/PER/DIR
                 (UTC) (F)     (DEG/KT/KT) (MB)    (FT/S) (FT/S/D)
BUOY 41004       0950   66 71  110/ 14/ 17 1030.3    5/ 7   3/ 70/ 7
BUOY 41008       1050   64 62  100/ 10/ 12 1029.5R   5/ 7   5/ 90/ 7
FOLLY BEACH CMAN 1000   58      50/ 12/ 14 1031.4R
CAPERS NEARSHORE 1008   58      60/ 14/ 17 1030.7R
FRIPP NEARSHORE  1008   59 59   50/ 10/ 14 1030.2R


STATION/POSITION TIME  TEMP    WIND        PRES    WAVE   SWELL
                       AIR SEA DIR/SP/G            HT/PER HT/PER/DIR
                 (UTC) (F)     (DEG/KT/KT) (MB)    (FT/S) (FT/S/D)
5E ST. MARYS GA  1030      63                N/A     6/ 7   2/ 80/11
FRYING PAN BUOY  1050   65 72  160/ 10/ 14 1032.3R   4/10   3/100/10
BUOY 41025       1050   58 74  170/ 10/ 16 1034.1R   6/11   5/ 50/11
CAPE LOOKOUT NC  1000   47      10/  9/ 12 1033.0R
BUOY 41002       1050   62 72   70/ 14/ 19 1032.6R   6/ 9   5/ 30/ 9
BUOY 41010       NOT AVBL
ST AUGUSTINE FL  1100   67 65  100/ 18/ 20 1029.2R


$$



USA.gov is the U.S. government's official web portal to all federal, state and local government web resources and services.